Location: Cypress Hills Dark-Sky Preserve - CHICO
(49.6176°N, 110.2634°W)
Time: 18:33:55
(UTC-06:00)

Amateur Radio Satellites - All Passes

Search period start: 24 October 2014 18:03
Search period end: 25 October 2014 18:03
Location: Cypress Hills Dark-Sky Preserve - CHICO, 49.6176°N, 110.2634°W

Satellite Date Start Highest point End Downlink Frequencies (MHz)
Time Altitude Azimuth
SO-67 24 Oct 18:08:07 18:08:44 10° 59° (ENE) 18:09:21 435.3500 MHz FM
Hamsat 24 Oct 18:16:03 18:20:16 86° 256° (WSW) 18:24:29 145.90 MHz
Saudisat 1A 24 Oct 18:21:40 18:23:32 13° 250° (WSW) 18:25:23 436.775 MHz
HO-68 24 Oct 18:25:29 18:27:28 11° 35° (NE) 18:29:26 435.675 MHz FM
KITSAT 1 24 Oct 18:25:56 18:32:29 26° 11° (N) 18:39:02 435.175 FM
OPAL 24 Oct 18:31:05 18:35:55 48° 102° (ESE) 18:40:42 ?
UOSAT-12 24 Oct 18:35:22 18:38:30 17° 341° (NNW) 18:41:38 437.025 FM, 437.400 FM
Uosat F 24 Oct 18:37:26 18:39:16 12° 274° (W) 18:41:06 435.120 FM
SO-50 24 Oct 18:53:47 18:56:25 15° 11° (N) 18:59:04 436.795 FM
ISS 24 Oct 19:10:07 19:13:21 47° 208° (SSW) 19:16:34 145.800 FM
AO-7 24 Oct 19:16:06 19:17:52 11° 280° (W) 19:19:38 29.400 - 29.500 MHz
AO-40 24 Oct 19:16:50 23:05:10 28° 192° (SSW) 03:51:57 Beacon 2401.320
SO-67 24 Oct 19:37:44 19:41:10 76° 257° (WSW) 19:44:38 435.3500 MHz FM
JAS-2 24 Oct 19:38:23 19:42:50 20° 276° (W) 19:47:40 435.800 - 435.900 CW/SSB, 435.910 FM
HO-68 24 Oct 20:06:46 20:13:15 39° 58° (ENE) 20:19:45 435.675 MHz FM
OPAL 24 Oct 20:10:24 20:14:36 28° 301° (WNW) 20:18:46 ?
STRAND 1 24 Oct 20:15:04 20:20:13 65° 102° (ESE) 20:25:20 ?
UOSAT-12 24 Oct 20:18:07 20:20:30 14° 6° (N) 20:22:53 437.025 FM, 437.400 FM
KITSAT 1 24 Oct 20:22:13 20:30:02 48° 39° (NE) 20:37:47 435.175 FM
Oscar 11 24 Oct 20:33:18 20:35:12 13° 56° (NE) 20:37:05 145.825 FM, Beacon 2401.500 USB
SO-50 24 Oct 20:34:09 20:38:26 31° 35° (NE) 20:42:45 436.795 FM
ZACube-1 24 Oct 21:21:03 21:24:04 18° 60° (ENE) 21:27:04 437.345 MHz
UKube-1 24 Oct 21:25:04 21:29:08 40° 67° (ENE) 21:33:14 145.840 MHz, 145.915 MHz
RS-15 24 Oct 21:50:44 21:59:41 31° 105° (ESE) 22:08:34 29.354 - 29.394 USB, Beacon 29.352 USB
HO-68 24 Oct 21:53:45 22:00:45 55° 259° (WSW) 22:07:49 435.675 MHz FM
STRAND 1 24 Oct 21:55:02 21:58:59 23° 302° (WNW) 22:02:56 ?
UOSAT-12 24 Oct 21:58:20 22:02:16 25° 30° (NNE) 22:06:10 437.025 FM, 437.400 FM
FUNcube-1 24 Oct 22:04:16 22:08:32 40° 68° (ENE) 22:12:44 145.950 - 145.970 MHz USB
Oscar 11 24 Oct 22:06:22 22:10:42 86° 75° (ENE) 22:15:04 145.825 FM, Beacon 2401.500 USB
SO-50 24 Oct 22:14:33 22:19:20 62° 235° (SW) 22:24:09 436.795 FM
KITSAT 1 24 Oct 22:17:49 22:25:42 59° 242° (WSW) 22:33:32 435.175 FM
ZACube-1 24 Oct 22:55:26 23:00:00 70° 258° (WSW) 23:04:31 437.345 MHz
UKube-1 24 Oct 23:01:51 23:05:28 25° 266° (W) 23:09:06 145.840 MHz, 145.915 MHz
UOSAT-12 24 Oct 23:38:14 23:43:00 85° 231° (SW) 23:47:41 437.025 FM, 437.400 FM
FUNcube-1 24 Oct 23:41:07 23:45:01 27° 266° (W) 23:48:52 145.950 - 145.970 MHz USB
Oscar 11 24 Oct 23:46:00 23:47:31 12° 273° (W) 23:49:02 145.825 FM, Beacon 2401.500 USB
HO-68 24 Oct 23:48:52 23:50:08 11° 280° (W) 23:51:24 435.675 MHz FM
RS-15 24 Oct 23:59:44 00:10:43 87° 309° (NW) 00:21:47 29.354 - 29.394 USB, Beacon 29.352 USB
Oscar 10/S400 25 Oct 00:01:01 00:54:35 28° 223° (SW) 04:29:36 145.825 - 145.975 CW/USB, Beacon 145.810 USB
KITSAT 1 25 Oct 00:16:09 00:19:22 13° 263° (W) 00:22:36 435.175 FM
MaSat-1 25 Oct 00:26:56 00:30:49 47° 116° (ESE) 00:34:20 437.345 MHz
UOSAT-12 25 Oct 01:19:58 01:22:26 14° 251° (WSW) 01:24:52 437.025 FM, 437.400 FM
Oscar 16 25 Oct 01:41:29 01:44:29 15° 88° (E) 01:47:28 437.025 USB, Beacon 2401.1428
JAS-1B 25 Oct 01:43:38 01:48:22 20° 90° (E) 01:53:37 435.800 - 435.900 CW/SSB
Uribyol 2 25 Oct 02:03:25 02:04:01 10° 84° (E) 02:04:37 436.500 FM
MaSat-1 25 Oct 02:03:32 02:06:36 22° 312° (NW) 02:09:25 437.345 MHz
ITAMSAT 1 25 Oct 02:08:43 02:10:09 11° 84° (E) 02:11:35 435.822 SSB
RS-15 25 Oct 02:14:21 02:24:35 43° 339° (NNW) 02:35:01 29.354 - 29.394 USB, Beacon 29.352 USB
Oscar 19 25 Oct 02:33:40 02:38:31 41° 98° (E) 02:43:19 437.125 CW, 437.150 USB
AO-27 25 Oct 02:52:06 02:56:33 27° 93° (E) 03:00:56 436.795 MHz FM
AO-Echo 25 Oct 03:12:42 03:17:54 52° 99° (E) 03:23:05 ?
Oscar 16 25 Oct 03:19:21 03:24:31 83° 287° (WNW) 03:29:38 437.025 USB, Beacon 2401.1428
Sapphire 25 Oct 03:27:27 03:30:26 15° 104° (ESE) 03:33:26 437.095 MHz 1200 baud AX-25 AFSK
JAS-1B 25 Oct 03:33:10 03:39:38 88° 287° (WNW) 03:47:22 435.800 - 435.900 CW/SSB
Uribyol 2 25 Oct 03:39:16 03:44:30 68° 103° (ESE) 03:49:40 436.500 FM
ITAMSAT 1 25 Oct 03:45:21 03:50:36 72° 103° (ESE) 03:55:49 435.822 SSB
PCSat 25 Oct 03:48:24 03:52:39 24° 109° (ESE) 03:56:56 145.825 MHz
Gurwin Techsat 1B 25 Oct 04:06:32 04:11:50 62° 102° (ESE) 04:17:06 435.225 FM
OPAL 25 Oct 04:12:49 04:16:56 25° 57° (ENE) 04:21:01 ?
Oscar 19 25 Oct 04:13:14 04:17:46 33° 297° (WNW) 04:22:17 437.125 CW, 437.150 USB
TMSAT-1 25 Oct 04:17:37 04:22:53 59° 101° (E) 04:28:07 436.925 FM
RS-15 25 Oct 04:30:12 04:40:17 39° 13° (NNE) 04:50:38 29.354 - 29.394 USB, Beacon 29.352 USB
AO-27 25 Oct 04:31:15 04:36:19 50° 292° (WNW) 04:41:20 436.795 MHz FM
AO-Echo 25 Oct 04:51:55 04:56:25 29° 298° (WNW) 05:00:54 ?
JAS-2 25 Oct 04:56:57 05:00:22 13° 79° (E) 05:03:47 435.800 - 435.900 CW/SSB, 435.910 FM
Uosat F 25 Oct 04:58:29 05:02:30 23° 92° (E) 05:06:29 435.120 FM
Oscar 16 25 Oct 05:00:10 05:03:08 16° 306° (NW) 05:06:05 437.025 USB, Beacon 2401.1428
Sapphire 25 Oct 05:07:37 05:13:02 83° 124° (ESE) 05:18:30 437.095 MHz 1200 baud AX-25 AFSK
AO-7 25 Oct 05:11:09 05:18:59 43° 98° (E) 05:26:47 29.400 - 29.500 MHz
Uribyol 2 25 Oct 05:19:34 05:23:31 22° 302° (WNW) 05:27:26 436.500 FM
JAS-1B 25 Oct 05:25:06 05:29:42 21° 305° (NW) 05:34:48 435.800 - 435.900 CW/SSB
ITAMSAT 1 25 Oct 05:25:45 05:29:36 21° 303° (WNW) 05:33:26 435.822 SSB
PCSat 25 Oct 05:30:13 05:35:37 67° 309° (NW) 05:41:03 145.825 MHz
Gurwin Techsat 1B 25 Oct 05:47:13 05:51:25 24° 301° (WNW) 05:55:36 435.225 FM
OPAL 25 Oct 05:50:25 05:55:29 59° 256° (WSW) 06:00:31 ?
STRAND 1 25 Oct 05:57:41 06:01:46 25° 59° (ENE) 06:05:52 ?
TMSAT-1 25 Oct 05:58:11 06:02:27 25° 300° (WNW) 06:06:43 436.925 FM
Hamsat 25 Oct 05:58:58 06:00:48 13° 87° (E) 06:02:39 145.90 MHz
AO-27 25 Oct 06:14:16 06:14:40 10° 313° (NW) 06:15:04 436.795 MHz FM
Uosat F 25 Oct 06:36:40 06:41:37 55° 291° (WNW) 06:46:32 435.120 FM
JAS-2 25 Oct 06:39:18 06:46:55 58° 99° (E) 06:54:38 435.800 - 435.900 CW/SSB, 435.910 FM
RS-15 25 Oct 06:43:46 06:54:52 71° 44° (NE) 07:06:22 29.354 - 29.394 USB, Beacon 29.352 USB
Sapphire 25 Oct 06:52:35 06:57:07 26° 326° (NW) 07:01:40 437.095 MHz 1200 baud AX-25 AFSK
AO-7 25 Oct 07:03:59 07:12:01 56° 300° (WNW) 07:20:03 29.400 - 29.500 MHz
PCSat 25 Oct 07:16:02 07:20:04 21° 332° (NNW) 07:24:06 145.825 MHz
Hamsat 25 Oct 07:33:06 07:37:18 76° 286° (WNW) 07:41:30 145.90 MHz
STRAND 1 25 Oct 07:35:33 07:40:36 59° 259° (WSW) 07:45:43 ?
Uosat F 25 Oct 08:18:14 08:19:22 11° 311° (NW) 08:20:30 435.120 FM
JAS-2 25 Oct 08:24:40 08:31:41 41° 299° (WNW) 08:38:50 435.800 - 435.900 CW/SSB, 435.910 FM
Saudisat 1A 25 Oct 08:29:33 08:33:51 58° 125° (SE) 08:38:12 436.775 MHz
SO-67 25 Oct 08:29:33 08:33:01 68° 102° (ESE) 08:36:26 435.3500 MHz FM
MaSat-1 25 Oct 08:33:40 08:35:54 21° 47° (NE) 08:37:57 437.345 MHz
Sapphire 25 Oct 08:40:02 08:42:30 13° 351° (N) 08:44:59 437.095 MHz 1200 baud AX-25 AFSK
RS-15 25 Oct 08:56:32 09:06:46 45° 248° (WSW) 09:17:24 29.354 - 29.394 USB, Beacon 29.352 USB
AO-7 25 Oct 08:57:58 09:03:07 18° 323° (NW) 09:08:17 29.400 - 29.500 MHz
PCSat 25 Oct 09:03:28 09:05:41 12° 358° (N) 09:07:53 145.825 MHz
Hamsat 25 Oct 09:11:32 09:12:31 11° 304° (NW) 09:13:30 145.90 MHz
HO-68 25 Oct 09:17:00 09:22:42 25° 90° (E) 09:28:20 435.675 MHz FM
Oscar 11 25 Oct 09:51:37 09:53:14 12° 87° (E) 09:54:49 145.825 FM, Beacon 2401.500 USB
SO-67 25 Oct 10:04:20 10:05:29 11° 300° (WNW) 10:06:38 435.3500 MHz FM
MaSat-1 25 Oct 10:09:25 10:11:24 19° 250° (WSW) 10:13:15 437.345 MHz
Saudisat 1A 25 Oct 10:09:51 10:13:43 29° 325° (NW) 10:17:36 436.775 MHz
JAS-2 25 Oct 10:12:06 10:14:49 12° 320° (NW) 10:17:34 435.800 - 435.900 CW/SSB, 435.910 FM
Sapphire 25 Oct 10:25:12 10:28:20 15° 18° (NNE) 10:31:28 437.095 MHz 1200 baud AX-25 AFSK
ZACube-1 25 Oct 10:41:29 10:44:15 17° 89° (E) 10:46:59 437.345 MHz
UKube-1 25 Oct 10:44:45 10:48:53 39° 98° (E) 10:52:59 145.840 MHz, 145.915 MHz
PCSat 25 Oct 10:47:41 10:51:23 18° 24° (NNE) 10:55:05 145.825 MHz
KITSAT 1 25 Oct 11:01:23 11:04:15 12° 96° (E) 11:07:07 435.175 FM
HO-68 25 Oct 11:03:56 11:11:10 79° 291° (WNW) 11:18:21 435.675 MHz FM
FUNcube-1 25 Oct 11:25:11 11:29:18 43° 98° (E) 11:33:18 145.950 - 145.970 MHz USB
Oscar 11 25 Oct 11:25:41 11:30:02 84° 285° (WNW) 11:34:20 145.825 FM, Beacon 2401.500 USB
Saudisat 1A 25 Oct 11:52:38 11:54:41 13° 349° (N) 11:56:44 436.775 MHz
Sapphire 25 Oct 12:08:15 12:13:21 38° 42° (NE) 12:18:24 437.095 MHz 1200 baud AX-25 AFSK
ZACube-1 25 Oct 12:16:51 12:21:04 57° 288° (WNW) 12:25:11 437.345 MHz
Oscar 19 25 Oct 12:18:09 12:21:20 17° 55° (NE) 12:24:30 437.125 CW, 437.150 USB
UKube-1 25 Oct 12:21:15 12:24:55 27° 297° (WNW) 12:28:34 145.840 MHz, 145.915 MHz
PCSat 25 Oct 12:30:42 12:36:03 54° 48° (NE) 12:41:21 145.825 MHz
SO-50 25 Oct 12:35:26 12:38:02 15° 110° (ESE) 12:40:41 436.795 FM
JAS-1B 25 Oct 12:35:45 12:40:04 23° 56° (NE) 12:44:23 435.800 - 435.900 CW/SSB
AO-27 25 Oct 12:38:52 12:40:58 12° 50° (NE) 12:43:04 436.795 MHz FM
KITSAT 1 25 Oct 12:50:04 12:57:53 57° 117° (ESE) 13:05:44 435.175 FM
HO-68 25 Oct 12:52:42 12:57:52 22° 312° (NW) 13:03:02 435.675 MHz FM
AO-Echo 25 Oct 12:53:36 12:56:50 18° 55° (NE) 13:00:09 ?
FUNcube-1 25 Oct 13:02:04 13:05:27 23° 297° (WNW) 13:08:46 145.950 - 145.970 MHz USB
Oscar 16 25 Oct 13:02:07 13:06:47 36° 64° (ENE) 13:11:26 437.025 USB, Beacon 2401.1428
Oscar 11 25 Oct 13:03:45 13:05:32 12° 304° (NW) 13:07:18 145.825 FM, Beacon 2401.500 USB
Uribyol 2 25 Oct 13:23:23 13:27:42 27° 60° (ENE) 13:32:02 436.500 FM
ITAMSAT 1 25 Oct 13:29:30 13:33:53 28° 61° (ENE) 13:38:18 435.822 SSB
ISS 25 Oct 13:31:14 13:34:06 27° 145° (SE) 13:36:59 145.800 FM
Saudisat 1A 25 Oct 13:33:52 13:36:06 14° 14° (NNE) 13:38:20 436.775 MHz
Sapphire 25 Oct 13:51:42 13:56:56 48° 243° (WSW) 14:02:07 437.095 MHz 1200 baud AX-25 AFSK
Gurwin Techsat 1B 25 Oct 13:53:36 13:57:54 26° 60° (ENE) 14:02:13 435.225 FM
Oscar 19 25 Oct 13:54:49 13:59:59 89° 74° (ENE) 14:05:10 437.125 CW, 437.150 USB
TMSAT-1 25 Oct 14:04:31 14:08:42 24° 59° (ENE) 14:12:54 436.925 FM
SO-50 25 Oct 14:13:22 14:17:55 87° 309° (NW) 14:22:38 436.795 FM
AO-27 25 Oct 14:14:21 14:19:29 62° 70° (ENE) 14:24:41 436.795 MHz FM
PCSat 25 Oct 14:14:30 14:19:14 31° 248° (WSW) 14:23:56 145.825 MHz
JAS-1B 25 Oct 14:24:30 14:30:19 67° 257° (WSW) 14:36:01 435.800 - 435.900 CW/SSB
AO-7 25 Oct 14:24:58 14:31:16 25° 44° (NE) 14:37:36 29.400 - 29.500 MHz
AO-Echo 25 Oct 14:30:00 14:34:56 84° 255° (WSW) 14:40:06 ?
Oscar 16 25 Oct 14:41:19 14:46:06 38° 263° (W) 14:50:55 437.025 USB, Beacon 2401.1428
KITSAT 1 25 Oct 14:45:42 14:53:30 50° 321° (NW) 15:01:20 435.175 FM
Uribyol 2 25 Oct 15:01:47 15:06:53 54° 259° (W) 15:12:03 436.500 FM
ISS 25 Oct 15:07:13 15:10:34 84° 344° (NNW) 15:13:55 145.800 FM
ITAMSAT 1 25 Oct 15:08:05 15:13:08 51° 260° (W) 15:18:16 435.822 SSB
Saudisat 1A 25 Oct 15:12:57 15:16:58 32° 37° (NE) 15:20:59 436.775 MHz
JAS-2 25 Oct 15:17:40 15:19:04 11° 37° (NE) 15:20:29 435.800 - 435.900 CW/SSB, 435.910 FM
Gurwin Techsat 1B 25 Oct 15:32:18 15:37:32 58° 259° (W) 15:42:48 435.225 FM
UOSAT-12 25 Oct 15:32:52 15:37:28 63° 125° (SE) 15:42:10 437.025 FM, 437.400 FM
Oscar 19 25 Oct 15:37:20 15:40:04 14° 273° (W) 15:42:48 437.125 CW, 437.150 USB
TMSAT-1 25 Oct 15:42:59 15:48:14 62° 258° (WSW) 15:53:31 436.925 FM
SO-50 25 Oct 15:55:27 15:59:08 23° 332° (NNW) 16:02:55 436.795 FM
AO-27 25 Oct 15:55:29 15:59:27 22° 269° (W) 16:03:26 436.795 MHz FM
AO-Echo 25 Oct 16:12:26 16:14:34 13° 275° (W) 16:16:44 ?
AO-7 25 Oct 16:14:41 16:22:57 80° 67° (ENE) 16:31:16 29.400 - 29.500 MHz
Uosat F 25 Oct 16:15:43 16:20:33 50° 68° (ENE) 16:25:26 435.120 FM
ISS 25 Oct 16:44:07 16:47:26 59° 3° (N) 16:50:45 145.800 FM
KITSAT 1 25 Oct 16:44:26 16:51:00 26° 348° (NNW) 16:57:35 435.175 FM
Saudisat 1A 25 Oct 16:52:27 16:56:43 48° 237° (WSW) 17:00:58 436.775 MHz
Hamsat 25 Oct 16:56:20 16:59:04 17° 61° (ENE) 17:01:47 145.90 MHz
JAS-2 25 Oct 16:56:24 17:02:06 39° 61° (ENE) 17:08:30 435.800 - 435.900 CW/SSB, 435.910 FM
UOSAT-12 25 Oct 17:13:51 17:17:59 30° 326° (NW) 17:22:10 437.025 FM, 437.400 FM
SO-50 25 Oct 17:39:04 17:41:23 13° 357° (N) 17:43:43 436.795 FM
Uosat F 25 Oct 17:55:28 17:59:36 26° 267° (W) 18:03:47 435.120 FM
